Location: Reggio Emilia
(44.6990°N, 10.6297°E)
Time: 14:09:51
(UTC+02:00)

ISS - Visible Passes

Search period start: 29 September 2022 00:00
Search period end: 09 October 2022 00:00
Orbit: 414 x 417 km, 51.6° (Epoch: 29 September)

Date Brightness Start Highest point End Pass type
(mag) Time Alt. Az. Time Alt. Az. Time Alt. Az.
29 Sep -3.4 20:32:50 10° NW 20:36:08 51° NNE 20:36:41 45° ENE visible
30 Sep -2.9 19:44:07 10° NW 19:47:17 37° NNE 19:49:52 14° E visible
30 Sep -1.8 21:20:50 10° WNW 21:22:45 28° W 21:22:45 28° W visible
01 Oct -3.8 20:31:58 10° WNW 20:35:20 75° SSW 20:35:58 54° SE visible
02 Oct -3.7 19:43:09 10° WNW 19:46:30 70° NNE 19:49:15 14° ESE visible
02 Oct -1.2 21:20:31 10° W 21:22:08 17° WSW 21:22:08 17° WSW visible
03 Oct -2.2 20:31:14 10° WNW 20:34:13 30° SW 20:35:29 23° S visible
04 Oct -3.0 19:42:11 10° WNW 19:45:26 50° SW 19:48:41 10° SE visible
05 Oct -0.9 20:31:22 10° WSW 20:32:48 12° SW 20:34:14 10° SSW visible
06 Oct -1.3 19:41:32 10° W 19:44:05 20° SW 19:46:37 10° S visible
